Regional Weather Roundup
Issued by NWS State College, PA

Home | Current Version | Previous Version | Text Only | Print | Product List | Glossary On
Versions: 1 2 3 4 5 6 7 8 9 10 11 12 13 14 15 16 17 18 19 20 21 22 23 24 25 26 27 28 29 30 31 32 33 34 35 36 37 38 39 40 41 42 43 44 45 46 47 48 49 50
000
ASUS41 KCTP 282110
RWRCTP

REGIONAL WEATHER ROUNDUP
NATIONAL WEATHER SERVICE STATE COLLEGE PA
500 PM EDT FRI AUG 28 2015

Note: "fair" indicates few or no clouds below 12,000 feet with no
significant weather and/or obstructions to visibility.

* = STATION THAT DOES NOT REPORT PRECIPITATION /E.G. RAIN...SNOW...ETC/
    THUNDER OR FOG.

PAZ002>004-007>009-013>016-020>023-029>032-282200-
WESTERN PENNSYLVANIA

CITY           SKY/WX    TMP DP  RH WIND       PRES   REMARKS
ERIE           SUNNY     72  56  57 N7        30.17F
MEADVILLE      MOSUNNY   74  54  49 SW5       30.18F
FRANKLIN*      PTSUNNY   75  52  43 CALM      30.20S
NEW CASTLE     FAIR      77  56  48 CALM      30.17F
BEAVER COUNTY  MOSUNNY   77  54  44 CALM      30.17F
BUTLER*        SUNNY     79  52  38 SE5       30.18F
PITTSBURGH INT MOSUNNY   79  50  36 VRB3      30.15F
PITTSBURGH     SUNNY     78  45  30 S3        30.15F
INDIANA*       MOSUNNY   77  54  44 VRB3      30.19F
LATROBE        MOSUNNY   79  50  36 CALM      30.16F
WASHINGTON CO* SUNNY     79  48  34 E3        30.17F
$$

PAZ004>006-010>012-017>019-024>028-033>037-041-042-045-046-049>053-282200-
CENTRAL PENNSYLVANIA

CITY           SKY/WX    TMP DP  RH WIND       PRES   REMARKS
BRADFORD       PTSUNNY   71  49  45 CALM      30.19F
DUBOIS         PTSUNNY   76  51  41 CALM      30.18F
CLEARFIELD     SUNNY     75  52  44 S3        30.18F
JOHNSTOWN      MOSUNNY   75  49  39 CALM      30.19F
ALTOONA        MOSUNNY   78  51  38 VRB3      30.18F
STATE COLLEGE  MOSUNNY   75  55  50 CALM      30.18F
WILLIAMSPORT   MOSUNNY   78  52  40 W3        30.14F
SELINSGROVE    MOSUNNY   77  57  50 VRB5      30.16F
FT INDIANTOWN  MOSUNNY   80  56  43 W7        30.15F
CAPITAL CITY   MOSUNNY   80  54  40 N6        30.15F
HARRISBURG     MOSUNNY   81  54  39 CALM      30.14F
YORK           SUNNY     79  56  45 CALM      30.16S
$$

PAZ038>040-043-044-047-048-054-055-060>062-067>071-282200-
EASTERN PENNSYLVANIA

CITY           SKY/WX    TMP DP  RH WIND       PRES   REMARKS
SCRANTON       MOSUNNY   77  52  41 CALM      30.17F
MOUNT POCONO   PTSUNNY   71  51  49 W8        30.20F
ALLENTOWN      MOSUNNY   81  53  37 CALM      30.15F
QUAKERTOWN*    PTCLDY    79  55  44 NW5       30.16F
READING        MOSUNNY   80  55  42 W8        30.14F
LANCASTER      SUNNY     79  54  41 NW8       30.15F
COATESVILLE    MOCLDY    79  55  44 NW7       30.17S
POTTSTOWN      MOSUNNY   80  56  43 NW5       30.16F
BLUE BELL      SUNNY     81  57  44 NW3       30.14F
DOYLESTOWN     MOSUNNY   79  54  41 N7        30.15S
WILLOW GROVE   NOT AVBL
NORTH PHILA    SUNNY     82  52  35 SW5       30.15F
PHILADELPHIA   MOSUNNY   84  53  34 VRB5      30.14F
$$


USA.gov is the U.S. government's official web portal to all federal, state and local government web resources and services.